#timestamp,LO_Frequency,Hit,StdDev 
1679482815.6,286046998.1,N
1679482835.5,286046998.1,N
1679482855.3,286046999.2,N
1679482875.1,286047001.2,N
1679482895.9,286046998.4,N
1679482915.7,286047001.1,N
1679482935.6,286046998.2,N
1679482955.4,286047000.8,N
1679482975.2,286047000.8,N
1679482995.1,286047000.8,N
1679482996.0,286047000.8,N
1679483015.8,286046999.1,N
1679483035.7,286046999.1,N
1679483055.5,286046999.2,N
1679483075.4,286046998.6,N
1679483095.2,286046998.8,N
1679483115.0,286046998.7,N
1679483115.9,286046998.7,N
1679483135.8,286046999.1,N
1679483155.6,286046997.4,N
1679483175.5,286046996.6,N
1679483225.3,286046999.1,E
1679483235.2,286046999.4,N
1679483255.1,286046998.5,P
1679483256.0,286046998.5,P
1679483275.8,286046998.2,Y
1679483295.7,286047000.6,P
1679483315.5,286047000.9,N
1679483335.3,286047001.1,N
1679483355.2,286046998.2,N
1679483375.0,286046998.2,N
1679483375.9,286046998.2,N
1679483395.8,286047000.8,N
1679483415.6,286047000.9,N
1679483435.5,286047002.8,N
1679483455.3,286047002.4,N
1679483475.1,286047002.1,N
1679483495.9,286047002.0,N
1679483515.7,286047001.5,N
1679483535.6,286047002.6,N
1679483555.4,286047001.7,N
1679483575.2,286047002.7,N
1679483595.1,286047000.1,N
1679483596.0,286047000.1,N
1679483615.8,286047000.1,N
1679483635.7,286046999.7,N
1679483655.5,286047000.3,N
1679483675.3,286047000.1,N
1679483695.2,286047001.7,N
1679483715.0,286047002.5,N
1679483715.9,286047002.5,N
1679483735.7,286046999.7,N
1679483755.6,286047000.0,N
1679483775.4,286047000.1,N
1679483795.3,286047000.3,N
1679483815.1,286047000.8,N
1679483816.0,286047000.8,N
1679483835.8,286047001.0,N
1679483855.7,286047000.7,N
1679483875.5,286046999.4,N
1679483895.4,286046999.0,N
1679483915.2,286046998.7,N
1679483935.0,286046999.1,N
1679483935.9,286046999.1,N
1679483955.8,286046999.8,N
1679483975.6,286047000.5,N
1679483995.4,286047000.5,N
1679484015.3,286047000.9,N
1679484035.1,286047002.4,N
1679484055.9,286047000.8,N
1679484075.7,286047000.7,N
1679484095.5,286046998.8,N
1679484115.4,286046998.9,N
1679484135.2,286047001.2,N
1679484155.0,286046998.3,N
1679484155.9,286046998.3,N
1679484175.8,286046999.3,N
1679484195.6,286046998.4,N
1679484215.5,286046998.1,N
1679484235.3,286046999.9,N
1679484255.1,286047000.6,N
1679484275.9,286047000.8,N
1679484295.7,286047000.6,N
1679484315.5,286047002.8,N
1679484335.4,286047002.1,N
1679484355.2,286046999.7,N
1679484375.1,286047000.0,N
1679484376.0,286047000.0,N
1679484395.8,286047000.8,N
1679484415.6,286047000.1,N
1679484435.5,286046999.9,N
1679484455.3,286047000.0,N
1679484475.2,286047000.2,N
1679484495.9,286047000.4,N
1679484515.7,286047000.9,N
1679484535.6,286047000.2,N
1679484555.4,286047002.8,N
1679484575.2,286047000.0,N
1679484595.1,286047000.1,N
1679484596.0,286047000.1,N
1679484615.8,286047002.7,N
1679484635.7,286047002.4,N
1679484655.5,286047000.2,N
1679484675.3,286047000.6,N
1679484695.2,286047000.8,N
1679484715.9,286046998.8,N
1679484735.7,286046998.8,N
1679484755.6,286046996.9,N
1679484775.4,286046999.2,N
1679484795.2,286046998.8,N
1679484815.1,286046999.1,N
1679484816.0,286046999.1,N
1679484835.8,286046998.3,N
1679484855.7,286046998.7,N
1679484875.5,286047000.6,N
1679484895.3,286046998.1,N
1679484915.2,286047000.7,N
1679484935.0,286046998.7,N
1679484935.9,286046998.7,N
1679484955.7,286046998.6,N
1679484975.6,286046998.2,N
1679484995.4,286047001.2,N
1679485015.3,286047000.6,N
1679485035.1,286047000.9,N
1679485036.0,286047000.9,N
1679485055.8,286047000.1,N
1679485075.7,286047000.8,N
1679485095.5,286047001.2,N
1679485115.3,286046998.4,N
1679485135.2,286046998.5,N
1679485155.0,286046998.1,N
1679485155.9,286046998.1,N
1679485175.8,286047000.6,N
1679485195.6,286047000.2,N
1679485215.4,286047000.9,N
1679485235.3,286046999.5,N
1679485255.1,286046998.5,N
1679485275.8,286046998.8,N
1679485295.7,286046999.1,N
1679485315.5,286046998.8,N
1679485335.4,286046996.6,Y
1679485355.2,286046999.2,P
1679485375.0,286046998.7,P
1679485375.9,286046998.7,P
1679485395.8,286046998.3,Y
1679485415.6,286047000.9,P
1679485435.5,286047002.3,N
1679485455.3,286047000.4,N
1679485475.1,286047000.1,N
1679485495.9,286047000.4,N
1679485515.7,286047000.0,N
1679485535.6,286047000.6,N
1679485555.4,286047001.0,N
1679485575.2,286047000.2,N
1679485595.1,286046999.7,N
1679485596.0,286046999.7,N
1679485615.8,286047000.1,N
1679485635.6,286047000.5,N
1679485655.5,286047002.3,Y
1679485675.3,286047002.7,P
1679485695.2,286047003.6,P
1679485715.0,286047002.0,N
1679485715.9,286047002.0,N
1679485735.7,286047000.1,N
1679485755.6,286047001.6,N
1679485775.4,286047002.5,N
1679485795.3,286047002.5,N
1679485815.1,286047002.5,N
1679485816.0,286047002.5,N
1679485835.8,286047002.0,N
1679485855.7,286047002.1,N
1679485875.5,286047002.6,N
1679485895.3,286047002.8,Y
1679485915.2,286047001.1,P
1679485935.0,286047000.3,N
1679485935.9,286047000.3,N
1679485955.8,286047000.6,N
1679485975.6,286046998.1,N
1679485995.4,286046999.8,N
1679486015.3,286047000.1,N
1679486035.1,286046998.6,N
1679486055.8,286046999.2,N
1679486075.7,286046998.2,N
1679486095.5,286046998.5,N
1679486115.4,286047000.6,N
1679486135.2,286046999.7,N
1679486155.0,286046998.6,N
1679486155.9,286046998.6,N
1679486175.8,286046998.7,N
1679486195.6,286046998.5,N
1679486215.5,286046998.5,N
1679486235.3,286046998.5,N
1679486255.1,286046998.8,N
1679486275.9,286046998.1,N
1679486295.7,286046998.9,N
1679486315.5,286046998.3,N
1679486335.4,286046999.6,N
1679486355.2,286046996.9,N
1679486375.1,286046999.3,N
1679486376.0,286046999.3,N
1679486395.8,286047000.4,N
